This is the latest recevied weather packets stored in our database for station/object DH1GAP-13. If no packets are shown the sender has not sent any weather packets the latest 1 day(s).
| Time | Temp. | Humidity | Pressure | Rain* | Wind** | Luminosity | Snow |
|---|---|---|---|---|---|---|---|
| 1777998064 | 20.56° C | 52% | 1017.2 hPa | 0 mm | 5.36 m/s, 202° | - | - |
| 1777998004 | 20.56° C | 52% | 1017.4 hPa | 0 mm | 1.34 m/s, 157° | - | - |
| 1777997944 | 20.56° C | 52% | 1017.4 hPa | 0 mm | 4.47 m/s, 225° | - | - |
| 1777997884 | 20.56° C | 52% | 1017.4 hPa | 0 mm | 0.45 m/s, 202° | - | - |
| 1777997824 | 20.56° C | 52% | 1017.2 hPa | 0 mm | 4.47 m/s, 202° | - | - |
| 1777997764 | 20.56° C | 52% | 1017.2 hPa | 0 mm | 6.71 m/s, 180° | - | - |
| 1777997704 | 20.56° C | 52% | 1017.2 hPa | 0 mm | 3.13 m/s, 157° | - | - |
| 1777997644 | 20.56° C | 52% | 1017.2 hPa | 0 mm | 3.13 m/s, 202° | - | - |
| 1777997584 | 20.56° C | 52% | 1017.2 hPa | 0 mm | 4.47 m/s, 202° | - | - |
| 1777997524 | 20.56° C | 52% | 1017.2 hPa | 0 mm | 6.26 m/s, 202° | - | - |
| 1777997464 | 20.56° C | 52% | 1017.2 hPa | 0 mm | 3.58 m/s, 202° | - | - |
| 1777997404 | 21.11° C | 52% | 1017.4 hPa | 0 mm | 1.79 m/s, 225° | - | - |
| 1777997344 | 21.11° C | 52% | 1017.2 hPa | 0 mm | 4.02 m/s, 225° | - | - |
| 1777997284 | 21.11° C | 52% | 1017.2 hPa | 0 mm | 4.92 m/s, 202° | - | - |
| 1777997224 | 21.11° C | 52% | 1017.2 hPa | 0 mm | 4.02 m/s, 292° | - | - |
| 1777997164 | 21.11° C | 52% | 1017.2 hPa | 0 mm | 1.34 m/s, 202° | - | - |
| 1777997104 | 21.11° C | 52% | 1017 hPa | 0 mm | 2.68 m/s, 180° | - | - |
| 1777997044 | 21.11° C | 52% | 1017 hPa | 0 mm | 0 m/s | - | - |
| 1777996984 | 21.11° C | 52% | 1017 hPa | 0 mm | 0 m/s | - | - |
| 1777996924 | 21.11° C | 52% | 1017 hPa | 0 mm | 0 m/s | - | - |
| 1777996864 | 21.11° C | 52% | 1017 hPa | 0 mm | 0.89 m/s, 247° | - | - |
| 1777996804 | 21.11° C | 52% | 1017 hPa | 0 mm | 2.24 m/s, 202° | - | - |
| 1777996744 | 21.11° C | 52% | 1017.2 hPa | 0 mm | 2.24 m/s, 180° | - | - |
| 1777996684 | 21.11° C | 52% | 1017.2 hPa | 0 mm | 0 m/s | - | - |
| 1777996624 | 21.11° C | 52% | 1017.2 hPa | 0 mm | 2.68 m/s, 180° | - | - |
* Rain latest hour (hover to see other rain measurements)
** Current wind speed in m/s (hover to see current wind gust speed)